DW9108 Weather Reports


Display with metric or nautical units.
time (UTC)temp
F
wind
direction
speed
MPH
gust
MPH
rain 1hr
in
rain 24hr
in
rain mn
in
humidity
%
barometer
mb
20260507062835 71 195 0.0 0.0 0.00 0.00 0.00 43 1012.9
20260507062350 71 195 0.0 3.0 0.00 0.00 0.00 42 1012.8
20260507061851 72 195 1.0 3.0 0.00 0.00 0.00 41 1012.8
20260507061342 72 195 1.0 3.0 0.00 0.00 0.00 41 1012.8
20260507060832 72 195 0.0 3.0 0.00 0.00 0.00 41 1012.8
20260507060343 72 195 0.0 3.0 0.00 0.00 0.00 41 1012.8
20260507055826 72 195 1.0 2.0 0.00 0.00 0.00 40 1012.8
20260507055322 73 195 1.0 2.0 0.00 0.00 0.00 39 1012.9
20260507054833 73 195 0.0 2.0 0.00 0.00 0.00 39 1012.8
20260507054350 73 195 0.0 2.0 0.00 0.00 0.00 38 1012.9
20260507053837 73 195 1.0 2.0 0.00 0.00 0.00 37 1012.9
20260507053325 74 195 0.0 1.0 0.00 0.00 0.00 36 1012.9
20260507052831 74 195 0.0 2.0 0.00 0.00 0.00 35 1012.9
20260507052319 75 195 0.0 4.0 0.00 0.00 0.00 35 1012.9
20260507051840 75 195 1.0 4.0 0.00 0.00 0.00 34 1012.9
20260507051348 75 138 1.0 3.0 0.00 0.00 0.00 35 1013.0
20260507050843 75 138 1.0 4.0 0.00 0.00 0.00 36 1013.0
20260507050332 76 138 2.0 4.0 0.00 0.00 0.00 35 1013.0
20260507045842 76 138 2.0 3.0 0.00 0.00 0.00 38 1013.0
20260507045340 76 138 0.0 0.0 0.00 0.00 0.00 37 1013.0
20260507044824 76 138 0.0 0.0 0.00 0.00 0.00 37 1013.0
20260507044339 77 138 0.0 2.0 0.00 0.00 0.00 35 1013.0
20260507043830 77 138 0.0 3.0 0.00 0.00 0.00 34 1013.0
20260507043340 78 138 2.0 4.0 0.00 0.00 0.00 32 1013.0
20260507042820 78 138 0.0 4.0 0.00 0.00 0.00 32 1013.0
20260507042325 78 91 2.0 4.0 0.00 0.00 0.00 29 1013.0
20260507041823 78 140 1.0 5.0 0.00 0.00 0.00 29 1013.0
20260507041325 78 140 0.0 5.0 0.00 0.00 0.00 30 1012.9
20260507040842 78 15 1.0 3.0 0.00 0.00 0.00 31 1012.9
20260507040339 79 291 0.0 3.0 0.00 0.00 0.00 31 1012.9
20260507035820 79 16 0.0 0.0 0.00 0.00 0.00 27 1012.9
20260507035343 80 16 0.0 0.0 0.00 0.00 0.00 26 1012.8
20260507034818 80 16 0.0 1.0 0.00 0.00 0.00 25 1012.8
20260507034335 80 16 0.0 4.0 0.00 0.00 0.00 25 1012.7
20260507033834 80 16 1.0 6.0 0.00 0.00 0.00 26 1012.7
20260507033320 81 355 4.0 6.0 0.00 0.00 0.00 30 1012.6
20260507032820 81 319 4.0 6.0 0.00 0.00 0.00 33 1012.5
20260507032316 81 315 2.0 8.0 0.00 0.00 0.00 29 1012.5
20260507031832 81 281 4.0 8.0 0.00 0.00 0.00 33 1012.4
20260507031340 81 311 4.0 8.0 0.00 0.00 0.00 33 1012.3
20260507030834 81 323 3.0 7.0 0.00 0.00 0.00 33 1012.3
20260507030325 81 299 4.0 8.0 0.00 0.00 0.00 33 1012.2
20260507025818 81 305 3.0 8.0 0.00 0.00 0.00 34 1012.2
20260507025325 81 249 5.0 9.0 0.00 0.00 0.00 34 1012.1
20260507024819 82 282 6.0 9.0 0.00 0.00 0.00 34 1012.1
20260507024330 82 283 5.0 8.0 0.00 0.00 0.00 33 1012.0
20260507023850 82 303 4.0 8.0 0.00 0.00 0.00 32 1012.0
20260507023334 82 274 3.0 6.0 0.00 0.00 0.00 32 1012.0
20260507022833 82 339 3.0 5.0 0.00 0.00 0.00 30 1011.9
20260507022335 82 323 1.0 3.0 0.00 0.00 0.00 21 1011.9
20260507021824 83 130 1.0 3.0 0.00 0.00 0.00 21 1011.8
20260507021326 83 80 0.0 2.0 0.00 0.00 0.00 21 1011.8
20260507020824 83 80 1.0 2.0 0.00 0.00 0.00 20 1011.8
20260507020327 84 80 1.0 3.0 0.00 0.00 0.00 20 1011.8
20260507015829 84 80 1.0 4.0 0.00 0.00 0.00 20 1011.7
20260507015346 84 72 1.0 5.0 0.00 0.00 0.00 20 1011.7
20260507014820 85 90 1.0 7.0 0.00 0.00 0.00 20 1011.7
20260507014327 85 103 4.0 7.0 0.00 0.00 0.00 19 1011.6
20260507013901 85 81 3.0 7.0 0.00 0.00 0.00 19 1011.6
20260507013329 86 96 4.0 5.0 0.00 0.00 0.00 19 1011.6
20260507012836 86 110 2.0 7.0 0.00 0.00 0.00 19 1011.6
20260507012317 86 114 3.0 7.0 0.00 0.00 0.00 19 1011.6
20260507011839 86 112 3.0 6.0 0.00 0.00 0.00 19 1011.6
20260507011322 86 128 3.0 6.0 0.00 0.00 0.00 19 1011.5
20260507010816 86 91 2.0 7.0 0.00 0.00 0.00 19 1011.5
20260507010318 87 185 4.0 7.0 0.00 0.00 0.00 19 1011.6
20260507005821 87 179 2.0 6.0 0.00 0.00 0.00 19 1011.6
20260507005326 87 65 3.0 6.0 0.00 0.00 0.00 19 1011.6
20260507004817 87 97 3.0 7.0 0.00 0.00 0.00 19 1011.6
20260507004329 87 84 3.0 7.0 0.00 0.00 0.00 19 1011.6
20260507003851 87 125 2.0 6.0 0.00 0.00 0.00 19 1011.6
20260507003333 87 174 2.0 8.0 0.00 0.00 0.00 19 1011.6
20260507002835 87 132 3.0 9.0 0.00 0.00 0.00 19 1011.5
20260507002323 87 131 4.0 9.0 0.00 0.00 0.00 19 1011.4
20260507001822 87 89 4.0 8.0 0.00 0.00 0.00 19 1011.6
20260507001330 87 148 1.0 7.0 0.00 0.00 0.00 19 1011.5
20260507000821 87 62 2.0 9.0 0.00 0.00 0.00 19 1011.5
20260507000328 87 94 4.0 9.0 0.00 0.00 0.00 19 1011.5
20260506235832 87 113 6.0 9.0 0.00 0.00 0.00 19 1011.5
20260506235332 87 90 3.0 8.0 0.00 0.00 0.00 19 1011.4
20260506234819 87 103 2.0 7.0 0.00 0.00 0.00 19 1011.5
20260506234325 88 92 3.0 6.0 0.00 0.00 0.00 18 1011.5
20260506233833 88 355 1.0 6.0 0.00 0.00 0.00 19 1011.5
20260506233352 87 76 2.0 6.0 0.00 0.00 0.00 19 1011.6
20260506232854 87 57 3.0 7.0 0.00 0.00 0.00 19 1011.6
20260506232336 87 32 3.0 8.0 0.00 0.00 0.00 19 1011.7
20260506231829 88 59 4.0 8.0 0.00 0.00 0.00 19 1011.7
20260506231338 88 139 3.0 7.0 0.00 0.00 0.00 19 1011.8
20260506230840 87 148 4.0 8.0 0.00 0.00 0.00 19 1011.8
20260506230318 87 202 5.0 8.0 0.00 0.00 0.00 19 1011.9
20260506225828 87 70 4.0 10.0 0.00 0.00 0.00 19 1011.9
20260506225400 87 90 4.0 10.0 0.00 0.00 0.00 19 1012.0
20260506224821 87 95 3.0 10.0 0.00 0.00 0.00 19 1012.0
20260506224320 87 114 3.0 10.0 0.00 0.00 0.00 19 1012.1
20260506223843 87 97 4.0 10.0 0.00 0.00 0.00 19 1012.1
20260506223334 87 109 3.0 7.0 0.00 0.00 0.00 19 1012.2
20260506222820 87 200 4.0 6.0 0.00 0.00 0.00 19 1012.2
20260506222332 86 113 3.0 13.0 0.00 0.00 0.00 19 1012.3
20260506221846 86 132 3.0 13.0 0.00 0.00 0.00 19 1012.4
20260506221325 86 108 7.0 13.0 0.00 0.00 0.00 19 1012.4
20260506220845 86 96 5.0 10.0 0.00 0.00 0.00 19 1012.5
20260506220333 85 108 5.0 8.0 0.00 0.00 0.00 20 1012.6
20260506215849 86 95 5.0 9.0 0.00 0.00 0.00 19 1012.7
20260506215324 86 52 3.0 9.0 0.00 0.00 0.00 19 1012.7
20260506214850 86 128 5.0 11.0 0.00 0.00 0.00 19 1012.8
20260506214319 87 72 6.0 11.0 0.00 0.00 0.00 19 1012.9
20260506213850 87 95 3.0 10.0 0.00 0.00 0.00 19 1012.9
20260506213326 86 175 3.0 8.0 0.00 0.00 0.00 19 1013.0
20260506212839 86 104 2.0 11.0 0.00 0.00 0.00 19 1013.1
20260506212346 85 82 3.0 11.0 0.00 0.00 0.00 19 1013.2
20260506211842 85 96 6.0 11.0 0.00 0.00 0.00 20 1013.1
20260506211327 85 87 5.0 10.0 0.00 0.00 0.00 20 1013.2
20260506210826 85 122 3.0 9.0 0.00 0.00 0.00 20 1013.3
20260506210332 85 128 5.0 8.0 0.00 0.00 0.00 20 1013.3
20260506205827 85 96 2.0 8.0 0.00 0.00 0.00 20 1013.4
20260506205330 84 148 2.0 9.0 0.00 0.00 0.00 20 1013.4
20260506204823 85 99 6.0 9.0 0.00 0.00 0.00 20 1013.5
20260506204329 85 166 4.0 7.0 0.00 0.00 0.00 19 1013.5
20260506203824 84 155 2.0 9.0 0.00 0.00 0.00 20 1013.6
20260506203330 84 109 4.0 9.0 0.00 0.00 0.00 20 1013.7
20260506202820 84 88 5.0 9.0 0.00 0.00 0.00 20 1013.7
20260506202331 83 197 1.0 8.0 0.00 0.00 0.00 21 1013.8
20260506201819 84 187 6.0 8.0 0.00 0.00 0.00 20 1013.9
20260506201321 84 203 4.0 11.0 0.00 0.00 0.00 20 1014.0
20260506200826 84 172 5.0 11.0 0.00 0.00 0.00 21 1014.1
20260506200346 83 100 1.0 9.0 0.00 0.00 0.00 21 1014.1
20260506195830 83 257 4.0 9.0 0.00 0.00 0.00 20 1014.3
20260506195329 84 127 5.0 8.0 0.00 0.00 0.00 20 1014.3
20260506194831 84 92 4.0 10.0 0.00 0.00 0.00 21 1014.4
20260506194332 83 56 5.0 10.0 0.00 0.00 0.00 21 1014.3
20260506193816 83 90 3.0 10.0 0.00 0.00 0.00 21 1014.5
20260506193359 83 136 3.0 10.0 0.00 0.00 0.00 22 1014.5
20260506192823 82 232 3.0 6.0 0.00 0.00 0.00 22 1014.5
20260506192328 82 86 3.0 10.0 0.00 0.00 0.00 23 1014.6
20260506191847 82 119 4.0 10.0 0.00 0.00 0.00 23 1014.6
20260506191328 82 59 5.0 9.0 0.00 0.00 0.00 23 1014.6
20260506190816 82 68 4.0 9.0 0.00 0.00 0.00 23 1014.6
20260506190324 82 176 1.0 8.0 0.00 0.00 0.00 24 1014.7
20260506185821 81 184 3.0 8.0 0.00 0.00 0.00 24 1014.8
20260506185349 81 114 3.0 8.0 0.00 0.00 0.00 25 1014.8
20260506184852 81 145 3.0 7.0 0.00 0.00 0.00 25 1014.8
20260506184332 80 72 2.0 8.0 0.00 0.00 0.00 25 1014.9
20260506183832 80 192 3.0 8.0 0.00 0.00 0.00 26 1015.0
20260506183331 79 83 1.0 8.0 0.00 0.00 0.00 26 1014.9
20260506182838 80 184 4.0 8.0 0.00 0.00 0.00 26 1015.0
20260506182350 80 83 3.0 7.0 0.00 0.00 0.00 26 1015.1
20260506181854 80 79 4.0 7.0 0.00 0.00 0.00 26 1015.1
20260506181319 79 123 3.0 7.0 0.00 0.00 0.00 27 1015.1
20260506180836 79 94 4.0 7.0 0.00 0.00 0.00 27 1015.1
20260506180330 78 105 3.0 7.0 0.00 0.00 0.00 28 1015.1
20260506175844 78 227 3.0 5.0 0.00 0.00 0.00 28 1015.2
20260506175333 78 117 1.0 7.0 0.00 0.00 0.00 28 1015.2
20260506174835 78 167 3.0 7.0 0.00 0.00 0.00 28 1015.2
20260506174320 77 96 2.0 7.0 0.00 0.00 0.00 29 1015.2
20260506173821 76 53 2.0 6.0 0.00 0.00 0.00 29 1015.2
20260506173349 77 172 3.0 5.0 0.00 0.00 0.00 29 1015.3
20260506172853 77 113 2.0 6.0 0.00 0.00 0.00 29 1015.3
20260506172327 76 100 3.0 6.0 0.00 0.00 0.00 29 1015.3
20260506171820 76 80 3.0 7.0 0.00 0.00 0.00 30 1015.3
20260506171338 75 69 3.0 7.0 0.00 0.00 0.00 30 1015.3
20260506170823 75 151 2.0 7.0 0.00 0.00 0.00 31 1015.3
20260506170353 75 142 2.0 5.0 0.00 0.00 0.00 31 1015.3
20260506165821 75 184 2.0 6.0 0.00 0.00 0.00 31 1015.3
20260506165323 74 161 1.0 5.0 0.00 0.00 0.00 32 1015.3
20260506164845 73 135 2.0 5.0 0.00 0.00 0.00 33 1015.2
20260506164332 73 258 2.0 5.0 0.00 0.00 0.00 34 1015.3
20260506163911 72 115 2.0 5.0 0.00 0.00 0.00 35 1015.2
20260506163322 72 272 2.0 5.0 0.00 0.00 0.00 35 1015.2
20260506162911 72 214 3.0 5.0 0.00 0.00 0.00 35 1015.2
20260506162329 71 192 1.0 4.0 0.00 0.00 0.00 35 1015.1
20260506161835 71 208 2.0 4.0 0.00 0.00 0.00 35 1015.1
20260506161329 71 159 1.0 4.0 0.00 0.00 0.00 36 1015.1
20260506160838 71 121 2.0 4.0 0.00 0.00 0.00 37 1015.1
20260506160326 70 202 2.0 4.0 0.00 0.00 0.00 37 1015.1
20260506155829 70 177 1.0 4.0 0.00 0.00 0.00 38 1015.1
20260506155322 69 134 2.0 4.0 0.00 0.00 0.00 38 1015.1
20260506154820 68 166 0.0 4.0 0.00 0.00 0.00 39 1015.1
20260506154332 68 217 0.0 4.0 0.00 0.00 0.00 39 1015.1
20260506153824 68 227 2.0 4.0 0.00 0.00 0.00 39 1015.1
20260506153331 69 160 0.0 3.0 0.00 0.00 0.00 39 1015.0
20260506152844 68 160 0.0 4.0 0.00 0.00 0.00 40 1015.0
20260506152328 68 160 1.0 4.0 0.00 0.00 0.00 40 1015.0
20260506151829 68 190 2.0 4.0 0.00 0.00 0.00 40 1015.1
20260506151355 67 233 0.0 2.0 0.00 0.00 0.00 42 1015.1
20260506150830 66 233 0.0 2.0 0.00 0.00 0.00 43 1015.1
20260506150406 66 233 1.0 2.0 0.00 0.00 0.00 43 1015.1
20260506145832 66 233 0.0 0.0 0.00 0.00 0.00 43 1015.1
20260506145331 67 233 0.0 0.0 0.00 0.00 0.00 42 1015.1
20260506144833 67 233 0.0 0.0 0.00 0.00 0.00 43 1015.1
20260506144345 66 233 0.0 0.0 0.00 0.00 0.00 44 1015.1
20260506143843 65 233 0.0 0.0 0.00 0.00 0.00 46 1015.1
20260506143330 64 233 0.0 2.0 0.00 0.00 0.00 47 1015.0
20260506142829 63 233 1.0 2.0 0.00 0.00 0.00 48 1015.0
20260506142322 62 233 0.0 1.0 0.00 0.00 0.00 50 1015.0
20260506141841 61 233 0.0 0.0 0.00 0.00 0.00 51 1014.9
20260506141348 60 233 0.0 0.0 0.00 0.00 0.00 54 1014.8
20260506140826 58 233 0.0 0.0 0.00 0.00 0.00 56 1014.8
20260506140334 57 233 0.0 0.0 0.00 0.00 0.00 58 1014.7
20260506135827 56 233 0.0 1.0 0.00 0.00 0.00 60 1014.7
20260506135334 55 233 0.0 1.0 0.00 0.00 0.00 61 1014.6
20260506134826 54 233 0.0 1.0 0.00 0.00 0.00 62 1014.6
20260506134342 53 233 0.0 1.0 0.00 0.00 0.00 64 1014.6
20260506133841 52 233 0.0 0.0 0.00 0.00 0.00 64 1014.5
20260506133321 52 233 0.0 0.0 0.00 0.00 0.00 65 1014.5
20260506132849 51 233 0.0 0.0 0.00 0.00 0.00 65 1014.5
20260506132326 51 233 0.0 0.0 0.00 0.00 0.00 66 1014.4
20260506131820 50 233 0.0 0.0 0.00 0.00 0.00 67 1014.3
20260506131325 50 233 0.0 0.0 0.00 0.00 0.00 68 1014.3
20260506130824 50 233 0.0 0.0 0.00 0.00 0.00 67 1014.2
20260506130341 50 233 0.0 0.0 0.00 0.00 0.00 67 1014.1
20260506125818 50 233 0.0 0.0 0.00 0.00 0.00 66 1014.0
20260506125319 50 233 0.0 0.0 0.00 0.00 0.00 66 1014.0
20260506124853 50 233 0.0 0.0 0.00 0.00 0.00 65 1013.9
20260506124342 51 233 0.0 0.0 0.00 0.00 0.00 65 1013.9
20260506123858 51 233 0.0 0.0 0.00 0.00 0.00 65 1013.8
20260506123321 51 233 0.0 0.0 0.00 0.00 0.00 64 1013.7
20260506122840 51 233 0.0 1.0 0.00 0.00 0.00 63 1013.7
20260506122337 51 233 0.0 3.0 0.00 0.00 0.00 63 1013.7
20260506121833 52 233 1.0 3.0 0.00 0.00 0.00 62 1013.7
20260506121319 52 233 1.0 4.0 0.00 0.00 0.00 62 1013.7
20260506120821 52 233 2.0 4.0 0.00 0.00 0.00 62 1013.7
20260506120341 52 233 3.0 4.0 0.00 0.00 0.00 64 1013.5
20260506115837 51 179 0.0 0.0 0.00 0.00 0.00 64 1013.5
20260506115318 51 179 0.0 0.0 0.00 0.00 0.00 65 1013.5
20260506114829 51 179 0.0 0.0 0.00 0.00 0.00 65 1013.5
20260506114403 51 179 0.0 1.0 0.00 0.00 0.00 65 1013.5
20260506113852 51 179 0.0 2.0 0.00 0.00 0.00 64 1013.5
20260506113337 51 179 1.0 2.0 0.00 0.00 0.00 65 1013.5
20260506112820 51 179 1.0 2.0 0.00 0.00 0.00 64 1013.5
20260506111829 52 179 1.0 3.0 0.00 0.00 0.00 64 1013.4
20260506111337 52 250 0.0 0.0 0.00 0.00 0.00 63 1013.3
20260506110822 52 250 0.0 1.0 0.00 0.00 0.00 63 1013.4
20260506110323 52 250 0.0 3.0 0.00 0.00 0.00 64 1013.4
20260506105827 52 250 0.0 3.0 0.00 0.00 0.00 64 1013.3
20260506105318 52 250 2.0 3.0 0.00 0.00 0.00 64 1013.3
20260506104830 52 250 2.0 3.0 0.00 0.00 0.00 63 1013.4
20260506104334 52 250 3.0 3.0 0.00 0.00 0.00 64 1013.3
20260506103914 52 250 0.0 2.0 0.00 0.00 0.00 63 1013.3
20260506103335 52 250 0.0 2.0 0.00 0.00 0.00 63 1013.3
20260506102833 52 250 1.0 2.0 0.00 0.00 0.00 63 1013.3
20260506102328 52 250 1.0 2.0 0.00 0.00 0.00 63 1013.3
20260506101829 52 250 1.0 3.0 0.00 0.00 0.00 62 1013.2
20260506101336 52 250 2.0 3.0 0.00 0.00 0.00 63 1013.3
20260506100839 52 250 1.0 2.0 0.00 0.00 0.00 63 1013.2
20260506100354 52 250 0.0 2.0 0.00 0.00 0.00 63 1013.2
20260506095819 52 250 1.0 2.0 0.00 0.00 0.00 63 1013.2
20260506095320 53 250 0.0 3.0 0.00 0.00 0.00 62 1013.2
20260506094836 53 250 2.0 3.0 0.00 0.00 0.00 62 1013.2
20260506094324 53 250 1.0 3.0 0.00 0.00 0.00 63 1013.2
20260506093849 53 250 0.0 0.0 0.00 0.00 0.00 62 1013.2
20260506093328 53 250 0.0 0.0 0.00 0.00 0.00 62 1013.2
20260506092851 53 250 0.0 0.0 0.00 0.00 0.00 61 1013.3
20260506092335 53 250 0.0 0.0 0.00 0.00 0.00 61 1013.3
20260506091821 53 250 0.0 0.0 0.00 0.00 0.00 60 1013.3
20260506091345 54 250 0.0 0.0 0.00 0.00 0.00 60 1013.3
20260506090824 54 250 0.0 0.0 0.00 0.00 0.00 60 1013.2
20260506090318 54 250 0.0 0.0 0.00 0.00 0.00 60 1013.2
20260506085830 54 250 0.0 0.0 0.00 0.00 0.00 60 1013.2
20260506085339 54 250 0.0 2.0 0.00 0.00 0.00 60 1013.3
20260506084856 55 250 0.0 2.0 0.00 0.00 0.00 59 1013.3
20260506084324 55 250 0.0 3.0 0.00 0.00 0.00 58 1013.4
20260506083835 55 250 0.0 3.0 0.00 0.00 0.00 58 1013.4
20260506083329 55 250 0.0 2.0 0.00 0.00 0.00 58 1013.4
20260506082830 56 250 0.0 2.0 0.00 0.00 0.00 58 1013.5
20260506082343 56 250 0.0 3.0 0.00 0.00 0.00 57 1013.5
20260506081846 56 250 0.0 3.0 0.00 0.00 0.00 56 1013.5
20260506081334 57 41 0.0 1.0 0.00 0.00 0.00 56 1013.6
20260506080821 57 41 0.0 2.0 0.00 0.00 0.00 56 1013.6
20260506080400 57 41 0.0 2.0 0.00 0.00 0.00 55 1013.6
20260506073337 59 141 1.0 4.0 0.00 0.00 0.00 52 1013.8
20260506072835 59 163 2.0 4.0 0.00 0.00 0.00 52 1013.8
20260506072324 60 163 0.0 3.0 0.00 0.00 0.00 52 1013.8
20260506071842 60 163 2.0 3.0 0.00 0.00 0.00 51 1013.8
20260506071328 60 163 1.0 3.0 0.00 0.00 0.00 51 1013.8
20260506070824 60 163 1.0 4.0 0.00 0.00 0.00 51 1013.8
20260506070331 61 163 2.0 4.0 0.00 0.00 0.00 50 1013.8